Location: Highridge
(54.0333°N, 114.1333°W)
Time: 13:43:53
(UTC+00:00)

Oscar 19 - Pass Details

Date: 06 December 2023
Orbit: 771 x 789 km, 98.9° (Epoch: 01 March)

Event Time Altitude Azimuth Distance (km) Brightness Sun altitude
Rises 01:04:15 0° 224° (SW) 3,239 15.0 -14.7°
Reaches altitude 10° 01:08:15 10° 256° (WSW) 2,320 14.5 -15.3°
Maximum altitude 01:10:05 12° 277° (W) 2,197 14.0 -15.6°
Drops below altitude 10° 01:11:57 10° 298° (WNW) 2,328 13.7 -15.8°
Sets 01:16:00 0° 330° (NNW) 3,266 14.0 -16.4°
